Showing default

FLOCK 4G 8, 62613

Orbit data source: Space-Track

FLOCK 4G 8, 62613 is a payload satellite owned by Planet (US) in SSO that was launched on Tue, 14 Jan 2025 UTC via an FALCON 9 launch vehicle from the Air Force Western Test Range (AFWTR). Payload-class satellites include a variety of spacecraft equipped with specific instruments for various scientific and technological missions. These include communications satellites like Starlink; space stations such as the ISS; scientific satellites like the Hubble; Earth observation satellites from companies like Planet Labs, Umbra, and HawkEye 360; GPS; miniature CubeSats for education and research; and military/defense satellites.

Loading next visibility...
Identifier
62613, 2025-009E
Orbit
SSO
Country
Flag of USUS
Related business
Manufacturer
Planet
Mission
Operational Commercial Imaging
Bus & Motor
CUBESAT 3U, Unknown motor
Mass
5.7 kg wet, 5.7 kg dry
Launch date (UTC)
2025-01-14 (1 year ago)
Launch vehicle
FALCON 9
Launch site
Air Force Western Test Range (AFWTR)
Object type
Payload
Rocket body
Debris
Shape & HBR
Box + 2 Pan, 1.0 m
Radar Cross Section
0.072 m², Medium (>0.1 m² and < 1m²)

Expand to show TLE details & history
Last TLE update: 10 hours ago

TLE from 10 hours ago
0 FLOCK 4G 8
1 62613U 25009E   26144.79453470  .00009063  00000-0  32211-3 0  9990
2 62613  97.4005 226.9061 0004998  57.2814 302.8908 15.29222138 75342
Epoch: 2026-05-24T19:04Z
TLE epoch observation values (Epoch: 2026-05-24T19:04:07.798Z)
Latitude
0.00006°
Longitude
58.48204°
Altitude
479.379 km
Speed
7.627 km/s
True Right ascension
15h 07m 37s
True Declination
0° 00' 00"
Sunlit
Object was in full shadow at epoch
Visualization orbit readout
Latitude
Unknown
Longitude
Unknown
Altitude
Unknown
Speed
Unknown
Apparent Right ascension
Unknown
Apparent Declination
Unknown
Sunlit
N/A
Visualization observer readout
Local Sidereal Time
14:40:20
Azimuth
Unknown
Elevation
Unknown
Doppler factor
Unknown
Orbital elements
Apogee altitude
478.515 km
Perigee altitude
471.664 km
Semi-major axis
6,853.227 km
Eccentricity
0.0005
Inclination
97.4005°
RAAN
226.9061°
Arg. of periapsis
57.2814°
True anomaly
302.84269°
Mean anomaly
302.8908°
Eccentric anomaly
302.86675°
Mean motion
3.82561 °/min
Orbital period
94.1 mins
BSTAR
0.00032211
Loading maneuver chart data...
Computing Atmospheric mass density...
Loading historical data...
Loading historical data...
Loading historical data...
Loading historical data...
Loading historical data...
Loading historical data...
Loading historical data...

Documentation

Showing up to 5 results
|